Regional Weather Roundup
Issued by NWS

Home | Current Version | Previous Version | Graphics & Text | Print | Product List | Glossary On
Versions: 1 2 3 4 5 6 7 8 9 10 11 12 13 14 15 16 17 18 19 20 21 22 23 24 25 26 27 28 29 30 31 32 33 34 35 36 37 38 39 40 41 42 43 44 45 46 47 48 49 50
000
ASUS45 KTFX 271419
RWRMT
MONTANA HOURLY WEATHER ROUNDUP
NATIONAL WEATHER SERVICE GREAT FALLS MT
819 AM MDT FRI MAR 27 2015

NOTE: "FAIR" INDICATES FEW OR NO CLOUDS BELOW 12000 FEET WITH NO
SIGNIFICANT WEATHER AND/OR OBSTRUCTIONS TO VISIBILITY.

* THESE STATIONS ARE NOT UNDER NWS QUALITY CONTROL. THEY DO NOT
   REPORT WEATHER SUCH AS PRECIPITATION OR FOG.

MTZ001>007-043-271500-
WEST OF THE DIVIDE
CITY           SKY/WX    TMP DP  RH WIND       PRES   REMARKS
KALISPELL      FOG       34  32  92 CALM      30.18S VSB M1/4
MISSOULA       FOG       32  32 100 CALM      30.23F VSB 2
BUTTE          SUNNY     27  25  92 SE5       30.24F WCI  21
MULLAN PASS    SUNNY     39  37  93 S9        30.18F WCI  33
* ESSEX        N/A       32  31  96 N/A        N/A
* EUREKA APT   SUNNY     36  34  92 CALM      30.16F
* HAMILTON APT PTCLDY    39  34  82 S5        30.21F WCI  35
* LIBBY APT    SUNNY     28  28 100 SE3       30.19S VSB 1/2
* LINCOLN      N/A       40  35  82 NE3G8      N/A
* LOOKOUT PASS N/A       35  35 100 S2         N/A
* POLSON       N/A       36  36 100 N/A        N/A
* SEELEY LAKE  N/A       26  25  96 N/A        N/A
* THOMP F APT  SUNNY     34  29  82 N2         N/A
$$

MTZ008-052>055-271500-
SOUTHWEST MONTANA
CITY           SKY/WX    TMP DP  RH WIND       PRES   REMARKS
BOZEMAN        SUNNY     34  28  79 SE5       30.20F WCI  29
DILLON         SUNNY     37  30  76 S7        30.24R WCI  32
* W YELLOWSTON SUNNY     23  22  96 N/A        N/A
* BOULDER HILL N/A       44  28  53 SW10G17    N/A
* HOMESTAKE PS N/A       41  31  68 W4         N/A
* MONIDA PASS  N/A       31  29  92 SE11       N/A   WCI  22
* RAYNOLDS PAS N/A       28  12  51 S7         N/A   WCI  21
* WHITEHALL    N/A       39  31  73 W4G11      N/A
* WISE RIVER   N/A       29  27  92 SW5        N/A   WCI  24
$$

MTZ009>010-012-014-046-048-049-054-271500-
EAST SLOPES AND CENTRAL MONTANA
CITY           SKY/WX    TMP DP  RH WIND       PRES   REMARKS
CUT BANK       PTSUNNY   48  36  63 W14       30.03S
GREAT FALLS    PTCLDY    45  34  65 S10       30.05F
HELENA         PTSUNNY   45  36  71 E3        30.15S
MALMSTROM AFB  SUNNY     45  34  65 SW10      30.06F
* DEARBORN     N/A       57  35  44 S6G15      N/A
* EAST GLACIER N/A       45  35  68 W21G26     N/A
* MONARCH      N/A       41  23  49 S6         N/A
* PENDROY      N/A       52  25  35 W10        N/A
* ROGERS PASS  N/A       44  34  68 E8G20      N/A
* WHITE SULPH  N/A       45  34  65 S10G17     N/A
$$

MTZ011-013-016-021-035-040-045-047-050-051-271500-
NORTH CENTRAL MONTANA
CITY           SKY/WX    TMP DP  RH WIND       PRES   REMARKS
HAVRE          PTSUNNY   45  37  74 SW13      30.00S
LEWISTOWN      PTCLDY    46  32  58 SW13      30.07S
* N BAR RANCH  SUNNY     50  30  46 W10       30.08S
* CHINOOK      PTSUNNY   45  37  74 NW3       30.00S
* FORT BENTON  SUNNY     48  34  59 CALM      30.05F
* CHESTER      N/A       48  34  59 NW10G15    N/A
* DENTON       N/A       41  32  70 S4         N/A
* GEYSER       N/A       44  27  51 W12        N/A
* JUDITH GAP   N/A       41  31  68 SE11       N/A
* LOMA         N/A       43  33  68 W4         N/A
$$

MTZ017>020-022>027-061-062-271500-
NORTHEAST MONTANA
CITY           SKY/WX    TMP DP  RH WIND       PRES   REMARKS
GLASGOW        SUNNY     37  32  82 NW7       29.96R WCI  32
GLENDIVE       PTSUNNY   39  36  89 W10       29.96S WCI  32
JORDAN         PTCLDY    45  37  74 W10       29.99S
SIDNEY         PTSUNNY   37  34  89 CALM      29.94S
WOLF POINT     PTCLDY    37  34  89 W5        29.96R WCI  33
* BEAVER HILL  N/A       42  35  76 SW11       N/A
* CIRCLE       N/A       42  36  79 W2G7       N/A
* LINDSAY DVD  N/A       46  36  68 W17        N/A
* NAVAJO       N/A       38  33  82 NW12       N/A   WCI  30
* PLENTYWOOD A PTSUNNY   34  32  92 CALM      29.92F
* POPLAR APT   PTCLDY    34  32  92 SW5       29.96R WCI  29
* SACO         N/A       34  32  92 N3         N/A
$$

MTZ028>042-056>058-271500-
SOUTHCENTRAL AND SOUTHEAST MONTANA
CITY           SKY/WX    TMP DP  RH WIND       PRES   REMARKS
BAKER          CLOUDY    45  37  74 W14       29.97S
BILLINGS       PTSUNNY   46  36  68 SW13      30.10S
LIVINGSTON     SUNNY     43  30  60 NW10      30.17S
MILES CITY     PTSUNNY   43  36  76 NW10      30.00R
* BIG TIMBER A PTCLDY    48  32  54 SW24G32   30.13F
* FORSYTH APT  PTSUNNY   50  37  61 SW5       30.02S
* ALZADA       N/A       45  39  80 SW10       N/A
* HYSHAM       N/A       46  34  63 W6         N/A
* LAME DEER    N/A       45  36  71 W12        N/A
* REED POINT   N/A       53  31  43 W9G16      N/A
* ROSCOE HILL  N/A       52  15  23 NE1G8      N/A
$$

REGIONAL REPORTS...DAKOTAS
CITY           SKY/WX    TMP DP  RH WIND       PRES   REMARKS
WILLISTON      CLOUDY    36  30  79 S6        29.93F WCI  31
DICKINSON      PTSUNNY   34  28  79 S15       29.94F WCI  24
BEACH          CLOUDY    41  39  93 W12       29.94F
CROSBY         PTCLDY    34  32  92 S15       29.92F WCI  24
TIOGA          PTSUNNY   32  32 100 S10       29.96F WCI  24
WATFORD CITY   SUNNY     36  32  85 S7        29.92F WCI  30
BISMARCK       LGT SNOW  25  19  78 S17       30.10F VSB 1 3/4 WCI  12
GRAND FORKS    CLOUDY    21  16  81 S8        30.23F WCI  11
FARGO          PTCLDY    19  12  74 S7        30.26S WCI  10
BUFFALO SD     PTSUNNY   34  30  85 S8        29.93F WCI  27
RAPID CITY     PTSUNNY   34  30  85 SE3       30.03F
$$

REGIONAL REPORTS...WYOMING/IDAHO/WASHINGTON
CITY           SKY/WX    TMP DP  RH WIND       PRES   REMARKS
GILLETTE       CLOUDY    46  39  77 W12       30.09F
SHERIDAN       PTCLDY    46  36  68 SW3       30.11S
CODY           PTCLDY    54  30  40 SW10G17   30.17R
YELLOWSTONE LA PTCLDY    23  19  85 CALM      30.37R
SALMON         SUNNY     30  28  92 CALM      30.31R
MULLAN PASS    SUNNY     39  37  93 S9        30.18S WCI  33
SAND POINT     FOG       37  37 100 CALM      30.16F VSB M1/4
SPOKANE        FOG       43  43 100 NE7       30.12S VSB M1/4
$$

REGIONAL REPORTS...ALBERTA
CITY           SKY/WX    TMP DP  RH WIND       PRES   REMARKS
CALGARY        PTSUNNY   50  28  43 SW8       29.93F
LETHBRIDGE     PTSUNNY   50  36  59 W17G25    29.98S
MEDICINE HAT   CLOUDY    45  39  80 S9        29.95S
EDMONTON       SUNNY     34  30  85 SE3       29.90S
WATERTON GATE  N/A       48  36  63 SW25G36    N/A
CARDSTON       N/A       54  32  43 W13G20     N/A
MILK RIVER     N/A       48  34  59 W12        N/A
$$

REGIONAL REPORTS...SASKATCHEWAN
CITY           SKY/WX    TMP DP  RH WIND       PRES   REMARKS
SWIFT CURRENT  SUNNY     39  36  89 W12       29.93R WCI  32
MOOSE JAW      PTSUNNY   39  34  82 W13       29.90S WCI  31
REGINA         CLOUDY    34  32  92 S3        29.89F
VAL MARIE      N/A       30  30 100 CALM       N/A
ASSINIBOIA     N/A       37  32  82 W10        N/A   WCI  30
CORONACH       N/A       34  32  92 NW8        N/A   WCI  27

$$



USA.gov is the U.S. government's official web portal to all federal, state and local government web resources and services.